KLM249 ENGM-EHAM

Flight info

Callsign KLM249
Flight time 1h 27m
Altitude 34000
Route VIPPA DCT KUGAL DCT EEL DCT BLUFA
Aircraft A21N/M-SDE2E3FGHIRWXY/LB1

Departure

Time 2026-05-07 17:47
Airport Oslo-Gardermoen International Airport (ENGM)

Arrival

Time 2026-05-07 19:15
Airport Amsterdam Airport Schiphol (EHAM)
Time Latitude Longitude Altitude Speed Heading
2026-05-07 17:24 60.19417 11.08840 682 ft 0 kts 192°
2026-05-07 17:38 60.19424 11.08843 682 ft 3 kts 192°
2026-05-07 17:38 60.19443 11.08851 680 ft 3 kts 192°
2026-05-07 17:38 60.19459 11.08866 679 ft 3 kts 239°
2026-05-07 17:39 60.19463 11.08895 676 ft 0 kts 284°
2026-05-07 17:41 60.19478 11.08840 681 ft 7 kts 304°
2026-05-07 17:41 60.19504 11.08729 682 ft 11 kts 283°
2026-05-07 17:41 60.19531 11.08595 680 ft 10 kts 313°
2026-05-07 17:41 60.19591 11.08562 682 ft 10 kts
2026-05-07 17:42 60.19674 11.08608 682 ft 15 kts 17°
2026-05-07 17:42 60.19788 11.08674 681 ft 19 kts 16°
2026-05-07 17:42 60.19924 11.08752 681 ft 20 kts 16°
2026-05-07 17:42 60.20059 11.08830 680 ft 20 kts 17°
2026-05-07 17:43 60.20190 11.08908 680 ft 19 kts 16°
2026-05-07 17:43 60.20320 11.08982 680 ft 19 kts 15°
2026-05-07 17:43 60.20444 11.09054 679 ft 19 kts 16°
2026-05-07 17:43 60.20569 11.09124 679 ft 18 kts 15°
2026-05-07 17:44 60.20690 11.09196 678 ft 18 kts 16°
2026-05-07 17:44 60.20809 11.09266 678 ft 18 kts 16°
2026-05-07 17:44 60.20927 11.09329 678 ft 17 kts 15°
2026-05-07 17:44 60.21041 11.09398 677 ft 17 kts 17°
2026-05-07 17:45 60.21153 11.09464 677 ft 17 kts 15°
2026-05-07 17:45 60.21263 11.09526 676 ft 16 kts 15°
2026-05-07 17:45 60.21373 11.09587 676 ft 16 kts 15°
2026-05-07 17:45 60.21481 11.09624 676 ft 16 kts 348°
2026-05-07 17:46 60.21556 11.09450 675 ft 19 kts 288°
2026-05-07 17:46 60.21567 11.09197 676 ft 18 kts 244°
2026-05-07 17:46 60.21506 11.09102 676 ft 0 kts 196°
2026-05-07 17:46 60.21374 11.09025 675 ft 50 kts 195°
2026-05-07 17:47 60.20840 11.08721 676 ft 110 kts 196°
2026-05-07 17:47 60.19904 11.08184 680 ft 168 kts 196°
2026-05-07 17:47 60.18694 11.07465 930 ft 188 kts 196°
2026-05-07 17:47 60.17415 11.06624 1445 ft 198 kts 205°
2026-05-07 17:48 60.16347 11.04951 2259 ft 194 kts 234°
2026-05-07 17:48 60.15660 11.02540 2802 ft 209 kts 244°
2026-05-07 17:48 60.15032 10.99704 3105 ft 235 kts 246°
2026-05-07 17:48 60.14360 10.96563 3543 ft 253 kts 246°
2026-05-07 17:49 60.13637 10.93282 4278 ft 258 kts 245°
2026-05-07 17:49 60.12894 10.89982 5081 ft 261 kts 245°
2026-05-07 17:49 60.12136 10.86655 5874 ft 263 kts 245°
2026-05-07 17:49 60.11369 10.83314 6698 ft 265 kts 245°
2026-05-07 17:50 60.10556 10.79980 7473 ft 268 kts 239°
2026-05-07 17:50 60.09391 10.77061 8280 ft 271 kts 222°
2026-05-07 17:50 60.07813 10.75063 9120 ft 275 kts 207°
2026-05-07 17:50 60.06037 10.73602 9962 ft 278 kts 204°
2026-05-07 17:51 60.04206 10.72162 10527 ft 291 kts 204°
2026-05-07 17:51 60.02250 10.70660 10822 ft 312 kts 202°
2026-05-07 17:51 60.00146 10.69096 11121 ft 333 kts 202°
2026-05-07 17:51 59.97918 10.67485 11601 ft 345 kts 202°
2026-05-07 17:52 59.95630 10.65862 12326 ft 351 kts 202°
2026-05-07 17:52 59.93310 10.64232 13109 ft 355 kts 202°
2026-05-07 17:52 59.90966 10.62593 13881 ft 359 kts 202°
2026-05-07 17:52 59.88602 10.60937 14555 ft 363 kts 202°
2026-05-07 17:53 59.86210 10.59256 15221 ft 366 kts 203°
2026-05-07 17:53 59.83800 10.57562 15859 ft 369 kts 202°
2026-05-07 17:53 59.81362 10.55854 16504 ft 372 kts 203°
2026-05-07 17:53 59.78906 10.54131 17122 ft 375 kts 203°
2026-05-07 17:54 59.76462 10.52416 17717 ft 379 kts 203°
2026-05-07 17:54 59.73959 10.50662 18292 ft 383 kts 203°
2026-05-07 17:54 59.71432 10.48897 18794 ft 386 kts 204°
2026-05-07 17:54 59.68883 10.47117 19281 ft 390 kts 204°
2026-05-07 17:55 59.66313 10.45325 19795 ft 393 kts 204°
2026-05-07 17:55 59.63720 10.43522 20311 ft 396 kts 204°
2026-05-07 17:55 59.61105 10.41708 20823 ft 400 kts 204°
2026-05-07 17:55 59.58469 10.39883 21312 ft 403 kts 204°
2026-05-07 17:56 59.55816 10.38048 21794 ft 406 kts 204°
2026-05-07 17:56 59.53172 10.36224 22253 ft 409 kts 205°
2026-05-07 17:56 59.50475 10.34365 22702 ft 412 kts 205°
2026-05-07 17:56 59.47757 10.32493 23097 ft 415 kts 205°
2026-05-07 17:57 59.45016 10.30609 23507 ft 419 kts 204°
2026-05-07 17:57 59.43148 10.29327 23776 ft 421 kts 204°
2026-05-07 17:57 59.39473 10.26812 24246 ft 424 kts 204°
2026-05-07 17:57 59.36679 10.24904 24613 ft 426 kts 204°
2026-05-07 17:58 59.33871 10.22991 24954 ft 428 kts 205°
2026-05-07 17:58 59.31053 10.21073 25299 ft 430 kts 205°
2026-05-07 17:58 59.28221 10.19149 25640 ft 432 kts 205°
2026-05-07 17:58 59.25370 10.17216 25970 ft 434 kts 205°
2026-05-07 17:59 59.22514 10.15282 26305 ft 436 kts 205°
2026-05-07 17:59 59.19641 10.13339 26598 ft 438 kts 204°
2026-05-07 17:59 59.16751 10.11387 26846 ft 441 kts 204°
2026-05-07 17:59 59.13840 10.09426 27144 ft 443 kts 204°
2026-05-07 18:00 59.10924 10.07466 27444 ft 445 kts 204°
2026-05-07 18:00 59.07993 10.05499 27781 ft 445 kts 204°
2026-05-07 18:00 59.05100 10.03564 28225 ft 444 kts 204°
2026-05-07 18:00 59.02180 10.01615 28649 ft 442 kts 204°
2026-05-07 18:01 58.99269 9.99674 29041 ft 441 kts 204°
2026-05-07 18:01 58.96368 9.97742 29426 ft 440 kts 204°
2026-05-07 18:01 58.93464 9.95811 29759 ft 440 kts 204°
2026-05-07 18:01 58.90569 9.93887 30054 ft 440 kts 204°
2026-05-07 18:02 58.84767 9.90042 30610 ft 440 kts 204°
2026-05-07 18:02 58.81899 9.88148 30881 ft 439 kts 204°
2026-05-07 18:02 58.79000 9.86237 31142 ft 439 kts 204°
2026-05-07 18:03 58.76108 9.84333 31401 ft 439 kts 204°
2026-05-07 18:03 58.73214 9.82431 31644 ft 439 kts 204°
2026-05-07 18:03 58.70327 9.80538 31891 ft 438 kts 204°
2026-05-07 18:03 58.67440 9.78648 32127 ft 438 kts 204°
2026-05-07 18:04 58.64555 9.76760 32315 ft 438 kts 203°
2026-05-07 18:04 58.61666 9.74872 32480 ft 439 kts 203°
2026-05-07 18:04 58.58808 9.73010 32693 ft 439 kts 203°
2026-05-07 18:04 58.55915 9.71130 32921 ft 438 kts 203°
2026-05-07 18:05 58.53024 9.69256 33139 ft 438 kts 203°
2026-05-07 18:05 58.50139 9.67388 33348 ft 438 kts 203°
2026-05-07 18:05 58.47251 9.65521 33543 ft 437 kts 203°
2026-05-07 18:05 58.44367 9.63659 33736 ft 437 kts 203°
2026-05-07 18:06 58.41481 9.61799 33923 ft 437 kts 203°
2026-05-07 18:06 58.38637 9.59969 34099 ft 437 kts 203°
2026-05-07 18:06 58.35745 9.58110 34122 ft 438 kts 203°
2026-05-07 18:07 58.29947 9.54393 34129 ft 442 kts 203°
2026-05-07 18:07 58.24057 9.50627 34129 ft 450 kts 203°
2026-05-07 18:08 58.18075 9.46819 34127 ft 455 kts 203°
2026-05-07 18:08 58.12070 9.43018 34110 ft 454 kts 202°
2026-05-07 18:09 58.06069 9.39230 34131 ft 455 kts 202°
2026-05-07 18:09 58.00057 9.35447 34123 ft 455 kts 202°
2026-05-07 18:10 57.94083 9.31701 34126 ft 455 kts 202°
2026-05-07 18:10 57.88073 9.27945 34127 ft 455 kts 202°
2026-05-07 18:11 57.82051 9.24192 34123 ft 456 kts 201°
2026-05-07 18:11 57.76012 9.20444 34128 ft 456 kts 201°
2026-05-07 18:12 57.70007 9.16731 34125 ft 456 kts 201°
2026-05-07 18:12 57.63972 9.13012 34129 ft 456 kts 201°
2026-05-07 18:13 57.57935 9.09304 34115 ft 456 kts 200°
2026-05-07 18:13 57.51933 9.05630 34125 ft 457 kts 200°
2026-05-07 18:14 57.45873 9.01935 34125 ft 457 kts 200°
2026-05-07 18:14 57.39839 8.98267 34127 ft 455 kts 200°
2026-05-07 18:15 57.33809 8.94617 34124 ft 455 kts 200°
2026-05-07 18:15 57.27813 8.90997 34128 ft 456 kts 200°
2026-05-07 18:16 57.21769 8.87361 34119 ft 456 kts 200°
2026-05-07 18:16 57.15731 8.83742 34124 ft 456 kts 200°
2026-05-07 18:17 57.10706 8.80740 34127 ft 456 kts 200°
2026-05-07 18:17 57.04659 8.77138 34121 ft 457 kts 199°
2026-05-07 18:18 56.98593 8.73536 34124 ft 457 kts 199°
2026-05-07 18:18 56.92573 8.69976 34122 ft 457 kts 199°
2026-05-07 18:19 56.86508 8.66400 34117 ft 457 kts 199°
2026-05-07 18:19 56.80442 8.62836 34115 ft 457 kts 199°
2026-05-07 18:20 56.74430 8.59314 34122 ft 457 kts 199°
2026-05-07 18:20 56.68367 8.55777 34124 ft 457 kts 198°
2026-05-07 18:21 56.62312 8.52255 34127 ft 457 kts 198°
2026-05-07 18:21 56.56253 8.48743 34128 ft 457 kts 198°
2026-05-07 18:22 56.50226 8.45261 34132 ft 457 kts 198°
2026-05-07 18:22 56.44159 8.41768 34130 ft 457 kts 198°
2026-05-07 18:23 56.38088 8.38284 34127 ft 457 kts 198°
2026-05-07 18:23 56.32013 8.34809 34133 ft 457 kts 198°
2026-05-07 18:24 56.25982 8.31371 34136 ft 458 kts 198°
2026-05-07 18:24 56.19892 8.27911 34132 ft 460 kts 198°
2026-05-07 18:25 56.13781 8.24450 34129 ft 459 kts 198°
2026-05-07 18:25 56.07674 8.21004 34131 ft 460 kts 198°
2026-05-07 18:26 56.01607 8.17591 34133 ft 460 kts 198°
2026-05-07 18:26 55.95481 8.14156 34137 ft 461 kts 197°
2026-05-07 18:27 55.89358 8.10735 34134 ft 461 kts 197°
2026-05-07 18:27 55.83218 8.07315 34137 ft 461 kts 197°
2026-05-07 18:28 55.77092 8.03915 34136 ft 461 kts 197°
2026-05-07 18:28 55.70957 8.00520 34134 ft 461 kts 197°
2026-05-07 18:29 55.64868 7.97162 34133 ft 461 kts 197°
2026-05-07 18:29 55.58736 7.93792 34136 ft 461 kts 197°
2026-05-07 18:30 55.52600 7.90430 34137 ft 461 kts 197°
2026-05-07 18:30 55.46467 7.87081 34138 ft 462 kts 197°
2026-05-07 18:31 55.40327 7.83739 34133 ft 462 kts 197°
2026-05-07 18:31 55.34221 7.80427 34134 ft 462 kts 197°
2026-05-07 18:32 55.28078 7.77105 34136 ft 461 kts 197°
2026-05-07 18:32 55.21930 7.73789 34137 ft 462 kts 196°
2026-05-07 18:33 55.15776 7.70483 34140 ft 462 kts 196°
2026-05-07 18:33 55.09677 7.67216 34133 ft 460 kts 196°
2026-05-07 18:34 55.03557 7.63949 34134 ft 460 kts 196°
2026-05-07 18:34 54.97472 7.60465 34132 ft 461 kts 199°
2026-05-07 18:35 54.91441 7.56615 34128 ft 461 kts 199°
2026-05-07 18:35 54.85406 7.52811 34130 ft 461 kts 199°
2026-05-07 18:36 54.79362 7.49038 34131 ft 461 kts 198°
2026-05-07 18:36 54.73348 7.45304 34131 ft 463 kts 198°
2026-05-07 18:37 54.67269 7.41545 34127 ft 463 kts 198°
2026-05-07 18:37 54.61218 7.37816 34124 ft 463 kts 198°
2026-05-07 18:38 54.55142 7.34083 34127 ft 463 kts 198°
2026-05-07 18:38 54.49067 7.30362 34123 ft 464 kts 197°
2026-05-07 18:39 54.42978 7.26645 34121 ft 464 kts 197°
2026-05-07 18:39 54.36881 7.22935 34121 ft 464 kts 197°
2026-05-07 18:40 54.30794 7.19242 34121 ft 464 kts 197°
2026-05-07 18:40 54.24744 7.15583 34123 ft 464 kts 197°
2026-05-07 18:41 54.18641 7.11904 34118 ft 464 kts 197°
2026-05-07 18:41 54.12543 7.08239 34115 ft 464 kts 197°
2026-05-07 18:42 54.06447 7.04587 34122 ft 464 kts 197°
2026-05-07 18:42 54.00369 7.00957 33986 ft 457 kts 197°
2026-05-07 18:42 53.97405 6.99188 33716 ft 446 kts 197°
2026-05-07 18:43 53.94495 6.97457 33445 ft 442 kts 197°
2026-05-07 18:43 53.91621 6.95751 33176 ft 443 kts 197°
2026-05-07 18:43 53.88701 6.94020 32903 ft 445 kts 197°
2026-05-07 18:43 53.85771 6.92286 32632 ft 445 kts 197°
2026-05-07 18:44 53.82841 6.90553 32365 ft 445 kts 197°
2026-05-07 18:44 53.79912 6.88823 32088 ft 446 kts 197°
2026-05-07 18:44 53.76981 6.87096 31340 ft 448 kts 198°
2026-05-07 18:44 53.74061 6.85378 30544 ft 450 kts 197°
2026-05-07 18:45 53.71122 6.83648 29949 ft 446 kts 198°
2026-05-07 18:45 53.68201 6.81933 29261 ft 443 kts 198°
2026-05-07 18:45 53.65305 6.80235 28613 ft 439 kts 198°
2026-05-07 18:45 53.62435 6.78554 27983 ft 435 kts 197°
2026-05-07 18:46 53.59574 6.76882 27379 ft 431 kts 198°
2026-05-07 18:46 53.56754 6.75237 26814 ft 427 kts 198°
2026-05-07 18:46 53.53957 6.73608 26318 ft 422 kts 199°
2026-05-07 18:46 53.51205 6.72003 26133 ft 417 kts 198°
2026-05-07 18:47 53.48458 6.70406 26114 ft 417 kts 198°
2026-05-07 18:47 53.45710 6.68812 26007 ft 417 kts 198°
2026-05-07 18:47 53.42965 6.67221 25761 ft 417 kts 198°
2026-05-07 18:47 53.40263 6.65657 25507 ft 415 kts 199°
2026-05-07 18:48 53.37535 6.64080 25262 ft 414 kts 199°
2026-05-07 18:48 53.34815 6.62510 25015 ft 413 kts 198°
2026-05-07 18:48 53.32098 6.60943 24771 ft 411 kts 198°
2026-05-07 18:48 53.29397 6.59388 24529 ft 409 kts 199°
2026-05-07 18:49 53.26704 6.57839 24290 ft 408 kts 199°
2026-05-07 18:49 53.24022 6.56299 24052 ft 407 kts 198°
2026-05-07 18:49 53.21347 6.54765 23827 ft 406 kts 199°
2026-05-07 18:49 53.18682 6.53239 23563 ft 404 kts 199°
2026-05-07 18:50 53.16029 6.51722 23290 ft 403 kts 199°
2026-05-07 18:50 53.13383 6.50210 23019 ft 401 kts 199°
2026-05-07 18:50 53.10773 6.48721 22740 ft 399 kts 199°
2026-05-07 18:50 53.08235 6.46942 22451 ft 390 kts 208°
2026-05-07 18:51 53.06006 6.44526 21821 ft 377 kts 219°
2026-05-07 18:51 53.04048 6.41671 20990 ft 371 kts 223°
2026-05-07 18:51 53.02194 6.38731 20157 ft 366 kts 224°
2026-05-07 18:51 53.00379 6.35793 19325 ft 363 kts 224°
2026-05-07 18:52 52.98570 6.32855 18717 ft 363 kts 224°
2026-05-07 18:52 52.96774 6.29937 18244 ft 359 kts 224°
2026-05-07 18:52 52.95003 6.27064 17819 ft 351 kts 224°
2026-05-07 18:52 52.93296 6.24295 17530 ft 334 kts 224°
2026-05-07 18:53 52.91660 6.21646 16899 ft 326 kts 224°
2026-05-07 18:53 52.90059 6.19056 16298 ft 318 kts 224°
2026-05-07 18:53 52.88483 6.16510 15645 ft 313 kts 224°
2026-05-07 18:53 52.86955 6.14042 15011 ft 309 kts 224°
2026-05-07 18:54 52.85421 6.11569 14370 ft 305 kts 224°
2026-05-07 18:54 52.83907 6.09129 13711 ft 302 kts 225°
2026-05-07 18:54 52.82406 6.06714 13028 ft 298 kts 225°
2026-05-07 18:54 52.80924 6.04332 12347 ft 295 kts 225°
2026-05-07 18:55 52.79461 6.01983 11685 ft 292 kts 224°
2026-05-07 18:55 52.78009 5.99652 11034 ft 290 kts 225°
2026-05-07 18:55 52.76560 5.97328 10552 ft 290 kts 224°
2026-05-07 18:55 52.75120 5.95022 10208 ft 286 kts 224°
2026-05-07 18:56 52.73695 5.92744 10108 ft 284 kts 225°
2026-05-07 18:56 52.72275 5.90473 10021 ft 284 kts 224°
2026-05-07 18:56 52.70868 5.88225 10013 ft 285 kts 224°
2026-05-07 18:56 52.69443 5.85951 10012 ft 285 kts 225°
2026-05-07 18:57 52.68013 5.83672 10009 ft 285 kts 224°
2026-05-07 18:57 52.66586 5.81400 10010 ft 285 kts 225°
2026-05-07 18:57 52.65159 5.79130 10010 ft 285 kts 225°
2026-05-07 18:57 52.63732 5.76862 10010 ft 285 kts 225°
2026-05-07 18:58 52.62302 5.74593 10010 ft 285 kts 224°
2026-05-07 18:58 52.60874 5.72329 10010 ft 284 kts 225°
2026-05-07 18:58 52.59452 5.70075 10009 ft 284 kts 225°
2026-05-07 18:58 52.58033 5.67829 10009 ft 283 kts 225°
2026-05-07 18:59 52.56616 5.65585 10010 ft 283 kts 225°
2026-05-07 18:59 52.55195 5.63339 10009 ft 283 kts 225°
2026-05-07 18:59 52.53772 5.61093 9994 ft 284 kts 225°
2026-05-07 18:59 52.52367 5.58876 9993 ft 283 kts 225°
2026-05-07 19:00 52.51055 5.56473 9885 ft 282 kts 234°
2026-05-07 19:00 52.49923 5.53860 9426 ft 281 kts 236°
2026-05-07 19:00 52.48848 5.51191 8968 ft 279 kts 237°
2026-05-07 19:00 52.47822 5.48496 8484 ft 279 kts 238°
2026-05-07 19:01 52.46827 5.45790 8108 ft 275 kts 238°
2026-05-07 19:01 52.45856 5.43106 7685 ft 272 kts 238°
2026-05-07 19:01 52.44899 5.40446 7299 ft 269 kts 238°
2026-05-07 19:01 52.43948 5.37812 6855 ft 268 kts 238°
2026-05-07 19:02 52.42997 5.35184 6423 ft 267 kts 238°
2026-05-07 19:02 52.42045 5.32569 5935 ft 267 kts 238°
2026-05-07 19:02 52.41094 5.29964 5490 ft 266 kts 238°
2026-05-07 19:02 52.40146 5.27372 5107 ft 264 kts 238°
2026-05-07 19:03 52.39201 5.24793 5003 ft 264 kts 238°
2026-05-07 19:03 52.38263 5.22238 4998 ft 266 kts 238°
2026-05-07 19:03 52.37307 5.19635 4998 ft 266 kts 238°
2026-05-07 19:03 52.36351 5.17037 4999 ft 266 kts 238°
2026-05-07 19:04 52.35397 5.14442 4999 ft 266 kts 238°
2026-05-07 19:04 52.34441 5.11846 4998 ft 266 kts 237°
2026-05-07 19:04 52.33488 5.09251 4997 ft 266 kts 238°
2026-05-07 19:04 52.32533 5.06663 4996 ft 266 kts 238°
2026-05-07 19:05 52.31573 5.04074 4996 ft 266 kts 238°
2026-05-07 19:05 52.30617 5.01520 4995 ft 266 kts 237°
2026-05-07 19:05 52.29649 4.98928 4805 ft 266 kts 237°
2026-05-07 19:05 52.28690 4.96353 4434 ft 261 kts 237°
2026-05-07 19:06 52.28076 4.94706 4208 ft 253 kts 237°
2026-05-07 19:06 52.26316 4.89965 3288 ft 235 kts 237°
2026-05-07 19:06 52.25475 4.87692 2995 ft 235 kts 238°
2026-05-07 19:07 52.24625 4.85412 2998 ft 234 kts 237°
2026-05-07 19:07 52.23783 4.83141 2994 ft 234 kts 237°
2026-05-07 19:07 52.22940 4.80867 2993 ft 234 kts 237°
2026-05-07 19:07 52.22097 4.78583 2993 ft 235 kts 237°
2026-05-07 19:08 52.21259 4.76293 2993 ft 235 kts 237°
2026-05-07 19:08 52.20419 4.74013 2993 ft 234 kts 237°
2026-05-07 19:08 52.19577 4.71739 2993 ft 234 kts 237°
2026-05-07 19:08 52.18730 4.69472 2999 ft 234 kts 237°
2026-05-07 19:09 52.17894 4.67245 2997 ft 222 kts 237°
2026-05-07 19:09 52.17139 4.65208 3024 ft 198 kts 238°
2026-05-07 19:09 52.16444 4.63331 3011 ft 192 kts 237°
2026-05-07 19:09 52.15756 4.61460 3011 ft 192 kts 237°
2026-05-07 19:10 52.15300 4.59428 2987 ft 194 kts 267°
2026-05-07 19:10 52.15627 4.57327 2559 ft 196 kts 306°
2026-05-07 19:10 52.16595 4.55848 2155 ft 192 kts 328°
2026-05-07 19:10 52.17704 4.54727 2014 ft 185 kts 332°
2026-05-07 19:11 52.18880 4.53936 1987 ft 182 kts 358°
2026-05-07 19:11 52.20074 4.54331 2002 ft 176 kts 26°
2026-05-07 19:11 52.21169 4.55243 2006 ft 177 kts 32°
2026-05-07 19:11 52.22105 4.56516 1999 ft 175 kts 51°
2026-05-07 19:12 52.22809 4.58126 2019 ft 173 kts 58°
2026-05-07 19:12 52.23456 4.59790 1997 ft 174 kts 59°
2026-05-07 19:12 52.24091 4.61415 1816 ft 162 kts 59°
2026-05-07 19:12 52.24674 4.62904 1581 ft 148 kts 59°
2026-05-07 19:13 52.25199 4.64251 1383 ft 134 kts 58°
2026-05-07 19:13 52.25692 4.65515 1200 ft 130 kts 59°
2026-05-07 19:13 52.26178 4.66765 1023 ft 130 kts 58°
2026-05-07 19:13 52.26662 4.68007 839 ft 129 kts 58°
2026-05-07 19:14 52.27144 4.69245 666 ft 129 kts 57°
2026-05-07 19:14 52.27618 4.70461 488 ft 128 kts 58°
2026-05-07 19:14 52.28101 4.71704 323 ft 130 kts 57°
2026-05-07 19:14 52.28594 4.72959 132 ft 132 kts 57°
2026-05-07 19:15 52.29084 4.74174 23 ft 119 kts 58°
2026-05-07 19:15 52.29429 4.75068 18 ft 60 kts 57°
2026-05-07 19:15 52.29599 4.75350 20 ft 25 kts
2026-05-07 19:15 52.29725 4.75296 19 ft 0 kts 13°
2026-05-07 19:16 52.29726 4.75296 19 ft 0 kts 14°
2026-05-07 19:16 52.29747 4.75312 19 ft 4 kts 33°
2026-05-07 19:16 52.29759 4.75334 21 ft 2 kts 57°
2026-05-07 19:17 52.29789 4.75433 20 ft 21 kts 64°
2026-05-07 19:17 52.29863 4.75648 19 ft 21 kts 57°
2026-05-07 19:17 52.29946 4.75860 15 ft 23 kts 59°
2026-05-07 19:17 52.30027 4.76077 15 ft 23 kts 59°
2026-05-07 19:18 52.30112 4.76295 17 ft 21 kts 57°
2026-05-07 19:18 52.30191 4.76498 17 ft 21 kts 57°
2026-05-07 19:18 52.30269 4.76695 15 ft 22 kts 57°
2026-05-07 19:18 52.30347 4.76910 14 ft 22 kts 59°
2026-05-07 19:19 52.30429 4.77120 13 ft 22 kts 57°
2026-05-07 19:19 52.30482 4.77256 14 ft 6 kts 55°
2026-05-07 19:19 52.30517 4.77308 14 ft 10 kts 21°
2026-05-07 19:19 52.30632 4.77224 9 ft 22 kts 301°
2026-05-07 19:20 52.30657 4.76981 7 ft 22 kts 273°
2026-05-07 19:20 52.30700 4.76743 2 ft 19 kts 263°
2026-05-07 19:20 52.30678 4.76616 2 ft 1 kts 252°
2026-05-07 19:20 52.30677 4.76611 2 ft 0 kts 253°